Weather History for Visalia, CA

Change the Weather History Date:

Friday, November 30, 2012

  Actual Average Record
Temperature  
Mean Temperature 60 °F -  
Max Temperature 64 °F 59 °F 76 °F (1929)
Min Temperature 57 °F 39 °F 26 °F (2004)
Degree Days  
Heating Degree Days 4    
Growing Degree Days 10 (Base 50)    
Moisture  
Dew Point 53 °F    
Average Humidity 79    
Maximum Humidity 88    
Minimum Humidity 68    
Precipitation  
Precipitation 0.06 in - - ()
Sea Level Pressure  
Sea Level Pressure 30.06 in    
Wind  
Wind Speed 6 mph (SE)    
Max Wind Speed 12 mph    
Max Gust Speed -    
Visibility 10 miles    
Events      
Averages and records for this station are not official NWS values.
T = Trace of Precipitation, MM = Missing Value Source: NWS Daily Summary

Daily Weather History Graph

Daily Weather History Graph

Search for Another Location

Airport:

Trip Planner

Search our weather history database for the weather conditions in past years. The results will help you decide how hot, cold, wet, or windy it might be!

Date:

Astronomy

Nov. 30, 2012 Rise Set
Actual Time 6:50 AM PST 4:42 PM PST
Civil Twilight 6:21 AM PST 5:10 PM PST
Nautical Twilight 5:49 AM PST 5:42 PM PST
Astronomical Twilight 5:18 AM PST 6:13 PM PST
Moon 6:41 PM PST (11/30) 8:25 AM PST (11/30)
Length of Visible Light 10h 49m
Length of Day
9h 52m
Waning Gibbous, 96% of the Moon is Illuminated
Nov 30
Waning Gibbous
Dec 6
Last Quarter
Dec 13
New
Dec 19
First Quarter
Dec 28
Full

Hourly Weather History & Observations

Time (PST) Temp. Dew Point Humidity Pressure Visibility Wind Dir Wind Speed Gust Speed Precip Events Conditions
12:15 AM 60.8 °F 53.6 °F 77% 30.09 in 10.0 mi ESE 3.5 mph - N/A   Mostly Cloudy
12:35 AM 59.0 °F 53.6 °F 82% 30.08 in 10.0 mi East 4.6 mph - N/A   Scattered Clouds
12:55 AM 57.2 °F 51.8 °F 82% 30.07 in 10.0 mi ESE 8.1 mph - N/A   Clear
1:15 AM 59.0 °F 51.8 °F 77% 30.08 in 10.0 mi East 8.1 mph - N/A   Clear
1:35 AM 59.0 °F 51.8 °F 77% 30.08 in 10.0 mi SSE 6.9 mph - N/A   Clear
1:55 AM 57.2 °F 51.8 °F 82% 30.08 in 10.0 mi SSW 5.8 mph - N/A   Mostly Cloudy
2:15 AM 57.2 °F 51.8 °F 82% 30.07 in 10.0 mi ESE 4.6 mph - N/A   Partly Cloudy
2:35 AM 57.2 °F 51.8 °F 82% 30.08 in 10.0 mi SSE 5.8 mph - N/A   Clear
2:55 AM 57.2 °F 51.8 °F 82% 30.07 in 10.0 mi SE 3.5 mph - N/A   Clear
3:15 AM 57.2 °F 51.8 °F 82% 30.06 in 10.0 mi East 5.8 mph - N/A   Partly Cloudy
3:35 AM 60.8 °F 51.8 °F 72% 30.05 in 10.0 mi East 5.8 mph - N/A   Mostly Cloudy
3:55 AM 59.0 °F 51.8 °F 77% 30.05 in 10.0 mi East 4.6 mph - N/A   Overcast
4:15 AM 60.8 °F 51.8 °F 72% 30.05 in 10.0 mi East 5.8 mph - N/A   Overcast
4:35 AM 60.8 °F 51.8 °F 72% 30.04 in 10.0 mi East 9.2 mph - N/A   Overcast
4:55 AM 60.8 °F 50.0 °F 68% 30.04 in 10.0 mi ESE 3.5 mph - N/A   Overcast
5:15 AM 60.8 °F 51.8 °F 72% 30.03 in 10.0 mi ESE 8.1 mph - N/A   Overcast
5:35 AM 60.8 °F 50.0 °F 68% 30.02 in 9.0 mi ESE 9.2 mph - N/A   Overcast
5:55 AM 60.8 °F 50.0 °F 68% 30.03 in 10.0 mi South 10.4 mph - N/A   Overcast
6:15 AM 59.0 °F 50.0 °F 72% 30.03 in 10.0 mi SSE 4.6 mph - N/A   Overcast
6:35 AM 59.0 °F 51.8 °F 77% 30.02 in 10.0 mi ESE 5.8 mph - N/A   Overcast
6:55 AM 57.2 °F 51.8 °F 82% 30.02 in 10.0 mi ESE 3.5 mph - N/A   Overcast
7:15 AM 59.0 °F 51.8 °F 77% 30.01 in 10.0 mi ESE 9.2 mph - N/A   Mostly Cloudy
7:35 AM 60.8 °F 51.8 °F 72% 30.01 in 10.0 mi ESE 6.9 mph - N/A   Mostly Cloudy
7:55 AM 59.0 °F 51.8 °F 77% 30.00 in 10.0 mi East 6.9 mph - N/A   Mostly Cloudy
8:15 AM 59.0 °F 51.8 °F 77% 30.02 in 10.0 mi South 3.5 mph - N/A   Mostly Cloudy
8:35 AM 60.8 °F 51.8 °F 72% 30.01 in 10.0 mi SSW 4.6 mph - N/A   Mostly Cloudy
8:55 AM 60.8 °F 51.8 °F 72% 30.01 in 10.0 mi SSW 3.5 mph - N/A   Overcast
9:15 AM 60.8 °F 51.8 °F 72% 30.02 in 10.0 mi SSW 5.8 mph - N/A   Overcast
9:35 AM 60.8 °F 51.8 °F 72% 30.03 in 10.0 mi South 6.9 mph - N/A   Overcast
9:55 AM 60.8 °F 53.6 °F 77% 30.03 in 10.0 mi South 8.1 mph - N/A   Mostly Cloudy
10:15 AM 62.6 °F 53.6 °F 72% 30.04 in 10.0 mi SSW 6.9 mph - N/A   Mostly Cloudy
10:35 AM 62.6 °F 53.6 °F 72% 30.03 in 10.0 mi South 6.9 mph - N/A   Mostly Cloudy
10:55 AM 62.6 °F 53.6 °F 72% 30.04 in 10.0 mi South 6.9 mph - N/A   Mostly Cloudy
11:15 AM 62.6 °F 55.4 °F 77% 30.07 in 10.0 mi SSW 6.9 mph - N/A   Overcast
11:35 AM 62.6 °F 55.4 °F 77% 30.03 in 10.0 mi SE 10.4 mph - N/A   Overcast
11:55 AM 62.6 °F 55.4 °F 77% 30.01 in 10.0 mi ESE 9.2 mph - N/A   Overcast
12:15 PM 62.6 °F 55.4 °F 77% 30.01 in 10.0 mi East 6.9 mph - N/A   Mostly Cloudy
12:35 PM 64.4 °F 55.4 °F 73% 30.04 in 10.0 mi ESE 5.8 mph - N/A   Overcast
12:55 PM 62.6 °F 53.6 °F 72% 30.03 in 10.0 mi ESE 6.9 mph - N/A   Overcast
1:15 PM 62.6 °F 55.4 °F 77% 30.03 in 10.0 mi SSE 11.5 mph - N/A   Overcast
1:35 PM 62.6 °F 55.4 °F 77% 30.03 in 10.0 mi South 9.2 mph - N/A   Overcast
1:55 PM 64.4 °F 53.6 °F 68% 30.03 in 10.0 mi South 9.2 mph - N/A   Overcast
2:15 PM 62.6 °F 53.6 °F 72% 30.05 in 8.0 mi SSW 5.8 mph - N/A   Overcast
2:35 PM 62.6 °F 55.4 °F 77% 30.03 in 10.0 mi South 6.9 mph - 0.01 in   Overcast
2:55 PM 64.4 °F 55.4 °F 73% 30.02 in 10.0 mi South 10.4 mph - 0.01 in   Overcast
3:15 PM 64.4 °F 53.6 °F 68% 30.02 in 10.0 mi South 10.4 mph - N/A   Overcast
3:35 PM 64.4 °F 53.6 °F 68% 30.02 in 10.0 mi SSW 9.2 mph - N/A   Overcast
3:55 PM 62.6 °F 53.6 °F 72% 30.05 in 10.0 mi SSW 5.8 mph - 0.03 in   Overcast
4:15 PM 60.8 °F 55.4 °F 82% 30.04 in 10.0 mi NE 5.8 mph - N/A   Overcast
4:35 PM 60.8 °F 55.4 °F 82% 30.04 in 10.0 mi ENE 8.1 mph - N/A   Overcast
4:55 PM 60.8 °F 55.4 °F 82% 30.06 in 9.0 mi East 6.9 mph - 0.01 in   Overcast
5:15 PM 59.0 °F 55.4 °F 88% 30.05 in 10.0 mi ENE 8.1 mph - 0.01 in   Overcast
5:35 PM 59.0 °F 55.4 °F 88% 30.06 in 10.0 mi East 10.4 mph - 0.01 in   Overcast
5:55 PM 59.0 °F 55.4 °F 88% 30.07 in 10.0 mi East 11.5 mph - 0.01 in   Overcast
6:15 PM 59.0 °F 55.4 °F 88% 30.08 in 10.0 mi ESE 10.4 mph - N/A   Overcast
6:35 PM 59.0 °F 53.6 °F 82% 30.09 in 7.0 mi ESE 8.1 mph - N/A   Mostly Cloudy
6:55 PM 59.0 °F 53.6 °F 82% 30.10 in 10.0 mi SE 6.9 mph - N/A   Overcast
7:15 PM 57.2 °F 53.6 °F 88% 30.10 in 10.0 mi SSE 4.6 mph - N/A   Overcast
7:35 PM 57.2 °F 53.6 °F 88% 30.09 in 10.0 mi SSE 6.9 mph - N/A   Overcast
7:55 PM 57.2 °F 53.6 °F 88% 30.10 in 10.0 mi SSE 5.8 mph - N/A   Overcast
8:15 PM 57.2 °F 53.6 °F 88% 30.11 in 10.0 mi South 3.5 mph - N/A   Mostly Cloudy
8:35 PM 57.2 °F 53.6 °F 88% 30.11 in 10.0 mi ESE 5.8 mph - N/A   Overcast
9:15 PM 57.2 °F 53.6 °F 88% 30.12 in 10.0 mi East 4.6 mph - N/A   Overcast
9:35 PM 57.2 °F 53.6 °F 88% 30.12 in 10.0 mi ESE 4.6 mph - N/A   Overcast
10:15 PM 57.2 °F 53.6 °F 88% 30.12 in 10.0 mi East 5.8 mph - N/A   Mostly Cloudy
10:35 PM 57.2 °F 53.6 °F 88% 30.12 in 10.0 mi ESE 4.6 mph - N/A   Overcast
10:55 PM 57.2 °F 53.6 °F 88% 30.13 in 10.0 mi ESE 5.8 mph - N/A   Overcast
11:15 PM 57.2 °F 53.6 °F 88% 30.14 in 10.0 mi ESE 3.5 mph - N/A   Overcast
11:35 PM 57.2 °F 53.6 °F 88% 30.14 in 10.0 mi East 4.6 mph - N/A   Overcast
11:55 PM 57.2 °F 53.6 °F 88% 30.14 in 10.0 mi ESE 6.9 mph - N/A   Overcast